QPF
0.05 0.04 0.03 0.03 0.02 0.02 0.02 0.02 0.02 0.02 0.03 0.02 0.02 0.03 0.04 0.04 0.04 0.04 0.04 0.05 0.06 0.07 0.09 0.09 0.10 0.10 0.09 0.07 0.05 0.05 0.04 0.04 0.04 0.04 0.04 0.04 0.03 0.01 0.01 0.01 0.01 0.01 0.00
0.05 0.03 0.03 0.03 0.03 0.02 0.02 0.02 0.02 0.02 0.03 0.03 0.03 0.03 0.03 0.04 0.06 0.05 0.05 0.06 0.08 0.08 0.10 0.11 0.11 0.09 0.08 0.08 0.07 0.06 0.05 0.04 0.04 0.04 0.03 0.03 0.03 0.02 0.01 0.01 0.01 0.01 0.01
0.04 0.03 0.03 0.03 0.03 0.02 0.02 0.01 0.01 0.01 0.02 0.02 0.04 0.03 0.03 0.04 0.05 0.06 0.05 0.07 0.07 0.07 0.08 0.10 0.11 0.11 0.09 0.07 0.08 0.07 0.08 0.07 0.05 0.04 0.03 0.03 0.03 0.02 0.02 0.01 0.02 0.02 0.01
0.04 0.03 0.03 0.03 0.03 0.02 0.02 0.02 0.01 0.01 0.01 0.03 0.05 0.04 0.04 0.05 0.03 0.04 0.05 0.06 0.07 0.07 0.07 0.07 0.08 0.09 0.09 0.09 0.10 0.09 0.09 0.08 0.06 0.04 0.04 0.03 0.02 0.02 0.02 0.01 0.01 0.01 0.01
0.02 0.02 0.03 0.03 0.02 0.01 0.01 0.01 0.01 0.01 0.01 0.02 0.03 0.03 0.03 0.02 0.02 0.02 0.02 0.02 0.04 0.07 0.08 0.06 0.04 0.05 0.07 0.08 0.08 0.09 0.08 0.07 0.07 0.05 0.04 0.03 0.03 0.03 0.02 0.02 0.01 0.01 0.00
0.01 0.01 0.01 0.01 0.01 0.01 0.01 0.01 0.01 0.02 0.01 0.01 0.01 0.01 0.01 0.01 0.01 0.01 0.01 0.01 0.02 0.03 0.04 0.05 0.06 0.04 0.04 0.06 0.07 0.07 0.07 0.07 0.06 0.05 0.05 0.05 0.05 0.04 0.03 0.02 0.02 0.01 0.01
0.01 0.01 0.01 0.01 0.00 0.00 0.01 0.01 0.01 0.01 0.01 0.01 0.01 0.01 0.01 0.01 0.01 0.01 0.02 0.01 0.01 0.02 0.03 0.04 0.05 0.05 0.04 0.04 0.03 0.05 0.05 0.06 0.07 0.06 0.06 0.05 0.06 0.07 0.05 0.04 0.03 0.03 0.03
0.00 0.00 0.01 0.01 0.00 0.00 0.00 0.00 0.01 0.01 0.01 0.01 0.01 0.01 0.01 0.01 0.01 0.01 0.01 0.01 0.02 0.01 0.01 0.02 0.03 0.05 0.05 0.06 0.03 0.03 0.03 0.04 0.05 0.07 0.08 0.08 0.07 0.07 0.05 0.04 0.04 0.04 0.04
0.00 0.00 0.01 0.01 0.00 0.00 0.00 0.00 0.01 0.01 0.01 0.00 0.00 0.01 0.01 0.01 0.01 0.01 0.00 0.01 0.02 0.02 0.01 0.01 0.02 0.04 0.04 0.06 0.05 0.03 0.03 0.03 0.04 0.07 0.09 0.08 0.06 0.05 0.04 0.04 0.04 0.04 0.04
0.01 0.01 0.01 0.01 0.00 0.00 0.00 0.00 0.00 0.01 0.01 0.00 0.00 0.00 0.00 0.00 0.01 0.01 0.01 0.01 0.01 0.01 0.01 0.01 0.02 0.02 0.02 0.03 0.03 0.01 0.01 0.02 0.03 0.04 0.07 0.07 0.06 0.04 0.04 0.05 0.06 0.06 0.06
0.01 0.01 0.00 0.00 0.00 0.00 0.00 0.00 0.00 0.00 0.00 0.00 0.00 0.00 0.00 0.00 0.00 0.01 0.02 0.02 0.02 0.01 0.01 0.01 0.01 0.01 0.01 0.01 0.02 0.01 0.00 0.01 0.01 0.02 0.03 0.04 0.04 0.04 0.04 0.05 0.05 0.06 0.08
0.00 0.00 0.00 0.00 0.00 0.00 0.00 0.00 0.00 0.00 0.00 0.00 0.00 0.00 0.00 0.00 0.00 0.00 0.01 0.02 0.02 0.01 0.01 0.01 0.01 0.01 0.01 0.00 0.00 0.00 0.00 0.00 0.00 0.00 0.01 0.02 0.03 0.03 0.03 0.04 0.04 0.06 0.08
0.00 0.00 0.00 0.00 0.00 0.00 0.00 0.00 0.00 0.00 0.00 0.00 0.00 0.00 0.00 0.00 0.00 0.00 0.00 0.01 0.01 0.01 0.02 0.01 0.01 0.01 0.00 0.00 0.00 0.00 0.00 0.00 0.00 0.00 0.00 0.00 0.01 0.02 0.02 0.02 0.03 0.04 0.05
0.01 0.00 0.00 0.00 0.00 0.00 0.00 0.00 0.00 0.00 0.00 0.00 0.00 0.00 0.00 0.00 0.00 0.00 0.00 0.00 0.01 0.01 0.01 0.01 0.01 0.01 0.00 0.00 0.00 0.00 0.00 0.00 0.00 0.00 0.00 0.00 0.00 0.00 0.01 0.01 0.01 0.01 0.01
0.01 0.01 0.01 0.00 0.00 0.00 0.00 0.00 0.00 0.00 0.00 0.00 0.00 0.00 0.00 0.00 0.00 0.00 0.00 0.00 0.00 0.00 0.00 0.01 0.01 0.00 0.00 0.00 0.00 0.00 0.00 0.00 0.00 0.00 0.00 0.00 0.00 0.00 0.00 0.00 0.00 0.00 0.00
0.02 0.02 0.01 0.01 0.00 0.00 0.00 0.00 0.00 0.00 0.00 0.00 0.00 0.00 0.00 0.00 0.00 0.00 0.00 0.00 0.00 0.00 0.00 0.00 0.00 0.00 0.00 0.00 0.00 0.00 0.00 0.00 0.00 0.00 0.00 0.00 0.00 0.00 0.00 0.00 0.00 0.00 0.00
0.04 0.03 0.02 0.02 0.01 0.01 0.01 0.01 0.01 0.01 0.00 0.00 0.00 0.00 0.00 0.00 0.00 0.00 0.00 0.00 0.00 0.00 0.00 0.00 0.00 0.00 0.00 0.00 0.00 0.00 0.00 0.00 0.00 0.00 0.00 0.00 0.00 0.00 0.00 0.00 0.00 0.00 0.00
0.07 0.06 0.06 0.05 0.03 0.02 0.02 0.02 0.02 0.01 0.01 0.01 0.00 0.00 0.00 0.00 0.00 0.00 0.00 0.00 0.00 0.00 0.00 0.00 0.00 0.00 0.00 0.00 0.00 0.00 0.00 0.00 0.00 0.00 0.00 0.00 0.00 0.00 0.00 0.00 0.00 0.00 0.00
0.09 0.07 0.06 0.06 0.04 0.03 0.02 0.02 0.02 0.02 0.02 0.01 0.01 0.01 0.01 0.01 0.01 0.01 0.01 0.00 0.00 0.00 0.00 0.00 0.00 0.00 0.00 0.00 0.01 0.01 0.00 0.00 0.00 0.00 0.00 0.00 0.00 0.00 0.00 0.00 0.00 0.00 0.00
0.10 0.09 0.08 0.07 0.05 0.04 0.03 0.02 0.02 0.02 0.02 0.01 0.01 0.01 0.01 0.01 0.01 0.02 0.02 0.02 0.01 0.01 0.01 0.01 0.01 0.00 0.01 0.01 0.01 0.01 0.01 0.01 0.01 0.00 0.00 0.00 0.00 0.00 0.00 0.00 0.00 0.00 0.00
0.09 0.10 0.09 0.07 0.06 0.05 0.04 0.03 0.03 0.03 0.02 0.03 0.03 0.03 0.03 0.02 0.02 0.02 0.02 0.02 0.03 0.03 0.03 0.02 0.01 0.01 0.01 0.02 0.02 0.02 0.02 0.01 0.01 0.01 0.01 0.00 0.00 0.00 0.00 0.00 0.00 0.00 0.00
0.09 0.10 0.10 0.09 0.08 0.06 0.06 0.06 0.06 0.05 0.05 0.05 0.05 0.05 0.03 0.03 0.03 0.02 0.02 0.02 0.02 0.03 0.03 0.03 0.03 0.02 0.03 0.04 0.04 0.03 0.02 0.02 0.01 0.01 0.01 0.00 0.00 0.00 0.00 0.00 0.00 0.00 0.00
0.09 0.10 0.10 0.10 0.10 0.09 0.08 0.06 0.05 0.05 0.05 0.05 0.05 0.05 0.04 0.03 0.03 0.02 0.03 0.03 0.02 0.03 0.03 0.03 0.03 0.03 0.04 0.04 0.04 0.03 0.03 0.02 0.02 0.02 0.02 0.01 0.00 0.00 0.00 0.00 0.00 0.00 0.00
0.09 0.11 0.11 0.10 0.08 0.08 0.08 0.06 0.06 0.06 0.07 0.07 0.07 0.06 0.06 0.05 0.04 0.03 0.04 0.04 0.03 0.03 0.03 0.02 0.02 0.02 0.02 0.03 0.03 0.03 0.03 0.02 0.01 0.01 0.02 0.01 0.00 0.00 0.00 0.00 0.00 0.00 0.00
0.10 0.09 0.08 0.07 0.06 0.06 0.06 0.07 0.07 0.07 0.07 0.08 0.08 0.07 0.06 0.05 0.06 0.05 0.04 0.04 0.05 0.05 0.04 0.03 0.03 0.02 0.02 0.02 0.02 0.01 0.02 0.02 0.01 0.01 0.03 0.02 0.01 0.01 0.00 0.00 0.00 0.00 0.00
0.06 0.06 0.06 0.07 0.07 0.06 0.06 0.07 0.08 0.07 0.08 0.09 0.08 0.07 0.06 0.05 0.05 0.05 0.05 0.05 0.05 0.05 0.05 0.04 0.03 0.02 0.02 0.02 0.03 0.02 0.02 0.02 0.02 0.02 0.02 0.03 0.02 0.02 0.01 0.00 0.00 0.01 0.01
MSLP
1017.02 1017.07 1017.07 1017.05 1017.05 1017.09 1017.18 1017.31 1017.45 1017.57 1017.64 1017.66 1017.64 1017.60 1017.58 1017.62 1017.76 1018.01 1018.37 1018.80 1019.27 1019.73 1020.14 1020.48 1020.72 1020.90 1021.01 1021.10 1021.17 1021.26 1021.37 1021.50 1021.65 1021.82 1022.00 1022.19 1022.38 1022.58 1022.77 1022.96 1023.13 1023.28 1023.40
1017.07 1017.13 1017.14 1017.12 1017.10 1017.13 1017.21 1017.34 1017.50 1017.66 1017.80 1017.89 1017.93 1017.95 1017.96 1017.99 1018.08 1018.26 1018.52 1018.85 1019.23 1019.61 1019.98 1020.31 1020.58 1020.79 1020.95 1021.08 1021.19 1021.30 1021.41 1021.55 1021.70 1021.86 1022.04 1022.24 1022.44 1022.64 1022.84 1023.04 1023.21 1023.36 1023.48
1017.11 1017.22 1017.25 1017.24 1017.24 1017.26 1017.34 1017.48 1017.66 1017.86 1018.05 1018.21 1018.32 1018.39 1018.42 1018.44 1018.48 1018.57 1018.71 1018.92 1019.17 1019.46 1019.76 1020.06 1020.33 1020.56 1020.77 1020.94 1021.09 1021.24 1021.37 1021.52 1021.67 1021.84 1022.01 1022.20 1022.41 1022.61 1022.82 1023.02 1023.20 1023.35 1023.47
1017.15 1017.30 1017.37 1017.40 1017.42 1017.45 1017.54 1017.68 1017.87 1018.10 1018.33 1018.55 1018.72 1018.83 1018.88 1018.90 1018.89 1018.89 1018.92 1018.99 1019.12 1019.29 1019.51 1019.75 1020.00 1020.25 1020.48 1020.69 1020.89 1021.07 1021.23 1021.39 1021.55 1021.71 1021.88 1022.07 1022.27 1022.48 1022.68 1022.88 1023.06 1023.22 1023.35
1017.16 1017.36 1017.48 1017.56 1017.61 1017.66 1017.75 1017.89 1018.08 1018.32 1018.58 1018.83 1019.04 1019.20 1019.28 1019.29 1019.25 1019.18 1019.11 1019.07 1019.07 1019.13 1019.25 1019.42 1019.64 1019.88 1020.12 1020.37 1020.59 1020.80 1020.99 1021.16 1021.33 1021.49 1021.66 1021.84 1022.03 1022.22 1022.42 1022.62 1022.80 1022.97 1023.11
1017.15 1017.39 1017.57 1017.69 1017.78 1017.85 1017.94 1018.07 1018.25 1018.48 1018.74 1019.00 1019.24 1019.42 1019.53 1019.55 1019.50 1019.39 1019.25 1019.12 1019.02 1018.98 1019.01 1019.11 1019.28 1019.50 1019.75 1020.00 1020.25 1020.48 1020.69 1020.87 1021.04 1021.20 1021.36 1021.53 1021.71 1021.89 1022.08 1022.27 1022.45 1022.62 1022.77
1017.12 1017.40 1017.62 1017.79 1017.91 1018.00 1018.09 1018.20 1018.35 1018.55 1018.79 1019.05 1019.29 1019.50 1019.63 1019.68 1019.63 1019.51 1019.34 1019.16 1018.99 1018.87 1018.83 1018.87 1018.98 1019.17 1019.40 1019.65 1019.91 1020.15 1020.37 1020.56 1020.74 1020.90 1021.05 1021.20 1021.37 1021.53 1021.71 1021.88 1022.05 1022.21 1022.37
1017.09 1017.39 1017.65 1017.86 1018.01 1018.12 1018.20 1018.29 1018.40 1018.56 1018.76 1018.99 1019.23 1019.44 1019.60 1019.67 1019.66 1019.55 1019.38 1019.18 1018.98 1018.82 1018.72 1018.71 1018.77 1018.92 1019.12 1019.36 1019.61 1019.85 1020.08 1020.28 1020.46 1020.62 1020.77 1020.92 1021.07 1021.21 1021.36 1021.51 1021.66 1021.81 1021.95
1017.06 1017.38 1017.66 1017.90 1018.08 1018.21 1018.29 1018.36 1018.43 1018.54 1018.69 1018.88 1019.10 1019.31 1019.48 1019.58 1019.60 1019.54 1019.40 1019.21 1019.01 1018.83 1018.70 1018.64 1018.67 1018.78 1018.95 1019.16 1019.40 1019.63 1019.86 1020.07 1020.26 1020.43 1020.58 1020.72 1020.85 1020.98 1021.11 1021.22 1021.34 1021.45 1021.56
1017.03 1017.35 1017.66 1017.93 1018.14 1018.29 1018.38 1018.43 1018.47 1018.54 1018.64 1018.78 1018.96 1019.16 1019.34 1019.46 1019.53 1019.50 1019.41 1019.25 1019.07 1018.89 1018.75 1018.67 1018.66 1018.73 1018.87 1019.05 1019.26 1019.49 1019.72 1019.93 1020.13 1020.31 1020.47 1020.62 1020.74 1020.85 1020.95 1021.03 1021.10 1021.16 1021.23
1016.99 1017.32 1017.64 1017.94 1018.18 1018.35 1018.46 1018.51 1018.54 1018.56 1018.62 1018.73 1018.87 1019.04 1019.21 1019.36 1019.45 1019.47 1019.42 1019.30 1019.15 1018.99 1018.85 1018.75 1018.72 1018.75 1018.85 1019.00 1019.19 1019.40 1019.62 1019.84 1020.05 1020.25 1020.42 1020.57 1020.70 1020.80 1020.87 1020.91 1020.94 1020.94 1020.94
1016.93 1017.24 1017.58 1017.90 1018.17 1018.38 1018.51 1018.58 1018.60 1018.62 1018.65 1018.71 1018.82 1018.96 1019.12 1019.27 1019.38 1019.43 1019.42 1019.34 1019.22 1019.08 1018.95 1018.84 1018.79 1018.79 1018.85 1018.97 1019.13 1019.32 1019.53 1019.75 1019.97 1020.18 1020.37 1020.54 1020.67 1020.76 1020.81 1020.83 1020.80 1020.75 1020.69
1016.82 1017.12 1017.45 1017.79 1018.09 1018.33 1018.50 1018.60 1018.64 1018.65 1018.67 1018.71 1018.79 1018.91 1019.05 1019.19 1019.31 1019.38 1019.39 1019.35 1019.26 1019.13 1019.01 1018.90 1018.83 1018.80 1018.83 1018.91 1019.04 1019.20 1019.40 1019.61 1019.83 1020.05 1020.25 1020.43 1020.57 1020.66 1020.71 1020.70 1020.64 1020.55 1020.43
1016.64 1016.92 1017.25 1017.59 1017.92 1018.20 1018.40 1018.53 1018.59 1018.62 1018.64 1018.67 1018.73 1018.83 1018.95 1019.08 1019.20 1019.28 1019.31 1019.28 1019.21 1019.11 1018.99 1018.88 1018.80 1018.75 1018.75 1018.79 1018.88 1019.02 1019.19 1019.38 1019.59 1019.80 1020.00 1020.19 1020.33 1020.44 1020.48 1020.47 1020.40 1020.29 1020.14
1016.41 1016.66 1016.97 1017.32 1017.65 1017.95 1018.18 1018.34 1018.44 1018.48 1018.51 1018.55 1018.60 1018.69 1018.80 1018.92 1019.03 1019.11 1019.15 1019.14 1019.08 1019.00 1018.89 1018.78 1018.68 1018.62 1018.59 1018.60 1018.65 1018.75 1018.88 1019.03 1019.21 1019.40 1019.59 1019.77 1019.92 1020.03 1020.09 1020.09 1020.03 1019.92 1019.78
1016.13 1016.36 1016.64 1016.98 1017.31 1017.61 1017.86 1018.04 1018.16 1018.23 1018.27 1018.31 1018.37 1018.45 1018.56 1018.67 1018.78 1018.86 1018.91 1018.91 1018.87 1018.79 1018.69 1018.59 1018.49 1018.41 1018.36 1018.34 1018.35 1018.40 1018.48 1018.59 1018.72 1018.87 1019.03 1019.18 1019.32 1019.44 1019.51 1019.53 1019.51 1019.44 1019.32
1015.83 1016.03 1016.30 1016.61 1016.93 1017.23 1017.47 1017.66 1017.78 1017.86 1017.92 1017.98 1018.04 1018.13 1018.24 1018.36 1018.47 1018.55 1018.60 1018.62 1018.59 1018.52 1018.43 1018.34 1018.24 1018.15 1018.09 1018.04 1018.02 1018.01 1018.04 1018.08 1018.15 1018.24 1018.35 1018.46 1018.57 1018.68 1018.76 1018.81 1018.83 1018.81 1018.75
1015.54 1015.73 1015.99 1016.28 1016.57 1016.85 1017.08 1017.25 1017.37 1017.45 1017.52 1017.59 1017.67 1017.76 1017.88 1018.01 1018.13 1018.22 1018.28 1018.30 1018.28 1018.23 1018.15 1018.06 1017.96 1017.88 1017.80 1017.73 1017.68 1017.63 1017.60 1017.57 1017.57 1017.58 1017.61 1017.67 1017.73 1017.81 1017.89 1017.96 1018.02 1018.05 1018.06
1015.29 1015.49 1015.75 1016.02 1016.29 1016.54 1016.74 1016.89 1016.99 1017.07 1017.13 1017.20 1017.30 1017.41 1017.54 1017.68 1017.81 1017.92 1017.99 1018.01 1018.00 1017.95 1017.88 1017.79 1017.70 1017.61 1017.53 1017.44 1017.36 1017.28 1017.19 1017.11 1017.02 1016.96 1016.90 1016.88 1016.88 1016.91 1016.96 1017.03 1017.11 1017.19 1017.26
1015.11 1015.34 1015.61 1015.88 1016.13 1016.35 1016.52 1016.64 1016.72 1016.78 1016.83 1016.91 1017.01 1017.13 1017.28 1017.44 1017.58 1017.69 1017.76 1017.79 1017.77 1017.72 1017.64 1017.56 1017.47 1017.37 1017.29 1017.20 1017.10 1016.99 1016.86 1016.72 1016.56 1016.41 1016.27 1016.16 1016.08 1016.03 1016.03 1016.07 1016.15 1016.24 1016.35
1015.01 1015.29 1015.59 1015.88 1016.13 1016.32 1016.46 1016.55 1016.60 1016.63 1016.68 1016.75 1016.85 1016.99 1017.15 1017.31 1017.46 1017.58 1017.64 1017.66 1017.63 1017.56 1017.47 1017.37 1017.27 1017.17 1017.08 1016.98 1016.88 1016.75 1016.59 1016.41 1016.20 1015.98 1015.76 1015.55 1015.37 1015.24 1015.16 1015.14 1015.18 1015.26 1015.37
1015.02 1015.37 1015.72 1016.03 1016.28 1016.47 1016.58 1016.64 1016.66 1016.67 1016.70 1016.76 1016.86 1017.00 1017.16 1017.33 1017.48 1017.58 1017.64 1017.63 1017.58 1017.48 1017.36 1017.23 1017.10 1016.99 1016.89 1016.79 1016.68 1016.55 1016.38 1016.18 1015.93 1015.65 1015.35 1015.06 1014.79 1014.56 1014.38 1014.28 1014.24 1014.26 1014.34
1015.15 1015.58 1015.98 1016.32 1016.60 1016.78 1016.88 1016.92 1016.92 1016.90 1016.91 1016.95 1017.04 1017.17 1017.32 1017.48 1017.61 1017.70 1017.73 1017.69 1017.60 1017.45 1017.29 1017.12 1016.96 1016.82 1016.70 1016.60 1016.49 1016.36 1016.19 1015.98 1015.71 1015.40 1015.05 1014.68 1014.32 1014.00 1013.72 1013.51 1013.37 1013.32 1013.33
1015.43 1015.92 1016.38 1016.77 1017.06 1017.25 1017.35 1017.37 1017.34 1017.30 1017.28 1017.30 1017.36 1017.47 1017.60 1017.73 1017.84 1017.89 1017.88 1017.80 1017.66 1017.46 1017.24 1017.02 1016.82 1016.64 1016.50 1016.38 1016.27 1016.15 1015.99 1015.78 1015.51 1015.18 1014.80 1014.39 1013.96 1013.54 1013.17 1012.86 1012.62 1012.46 1012.38
1015.87 1016.42 1016.92 1017.34 1017.66 1017.86 1017.95 1017.96 1017.91 1017.84 1017.79 1017.76 1017.79 1017.85 1017.95 1018.04 1018.10 1018.11 1018.06 1017.92 1017.72 1017.48 1017.20 1016.92 1016.67 1016.45 1016.28 1016.13 1016.01 1015.89 1015.74 1015.55 1015.29 1014.96 1014.57 1014.13 1013.65 1013.18 1012.73 1012.32 1011.99 1011.73 1011.55
1016.45 1017.04 1017.57 1018.02 1018.35 1018.56 1018.65 1018.64 1018.57 1018.47 1018.37 1018.30 1018.27 1018.28 1018.31 1018.35 1018.36 1018.32 1018.21 1018.03 1017.78 1017.48 1017.15 1016.82 1016.52 1016.25 1016.04 1015.87 1015.73 1015.60 1015.45 1015.27 1015.02 1014.70 1014.31 1013.87 1013.37 1012.86 1012.36 1011.89 1011.48 1011.14 1010.87
Thickness
5736 5736 5734 5732 5734 5732 5731 5729 5729 5727 5726 5726 5727 5726 5725 5724 5724 5723 5719 5715 5713 5712 5711 5710 5709 5708 5708 5708 5708 5708 5708 5708 5707 5707 5707 5707 5706 5706 5705 5705 5704 5704 5703
5735 5734 5733 5731 5732 5731 5731 5729 5728 5727 5727 5726 5726 5725 5724 5723 5721 5719 5719 5715 5713 5711 5710 5709 5708 5707 5707 5707 5707 5706 5706 5706 5706 5706 5705 5705 5705 5704 5704 5703 5703 5702 5702
5732 5732 5733 5731 5731 5730 5728 5728 5727 5727 5726 5726 5725 5724 5723 5721 5720 5719 5718 5717 5714 5711 5709 5708 5707 5707 5706 5706 5705 5705 5705 5705 5705 5705 5704 5704 5703 5703 5702 5702 5701 5701 5700
5731 5731 5732 5732 5729 5730 5729 5728 5728 5728 5726 5726 5724 5724 5723 5720 5719 5718 5718 5716 5716 5715 5710 5708 5707 5706 5706 5705 5705 5705 5704 5704 5704 5704 5703 5703 5702 5702 5701 5700 5700 5700 5699
5730 5731 5731 5730 5729 5730 5730 5730 5729 5728 5726 5725 5724 5722 5723 5722 5720 5720 5719 5718 5716 5714 5713 5708 5707 5707 5706 5705 5705 5704 5704 5703 5703 5703 5702 5702 5701 5700 5700 5699 5699 5699 5698
5729 5730 5730 5728 5730 5731 5729 5728 5726 5725 5726 5725 5727 5724 5724 5723 5722 5721 5720 5719 5717 5715 5714 5712 5709 5708 5706 5706 5705 5704 5704 5703 5703 5702 5701 5701 5700 5700 5699 5699 5698 5698 5697
5728 5728 5731 5728 5729 5730 5728 5728 5727 5725 5725 5726 5724 5722 5723 5724 5722 5721 5721 5720 5719 5717 5715 5713 5712 5711 5709 5706 5706 5705 5704 5704 5703 5702 5701 5701 5700 5699 5699 5698 5698 5697 5697
5727 5728 5728 5729 5729 5728 5727 5727 5726 5727 5727 5726 5725 5721 5717 5718 5719 5723 5721 5719 5720 5718 5717 5715 5713 5711 5711 5710 5707 5705 5704 5704 5703 5702 5701 5700 5700 5699 5699 5698 5697 5697 5696
5727 5727 5727 5729 5728 5730 5729 5726 5726 5724 5725 5726 5727 5724 5719 5716 5719 5721 5720 5720 5719 5719 5719 5717 5714 5712 5711 5710 5709 5706 5705 5703 5703 5702 5701 5700 5699 5699 5698 5698 5697 5697 5696
5726 5726 5726 5726 5727 5729 5727 5727 5727 5727 5724 5725 5725 5725 5724 5725 5719 5717 5719 5722 5720 5719 5719 5719 5717 5714 5712 5711 5708 5706 5704 5703 5702 5702 5701 5700 5699 5698 5698 5697 5696 5696 5696
5725 5726 5725 5725 5725 5728 5726 5726 5725 5725 5726 5726 5727 5725 5724 5722 5723 5719 5717 5719 5720 5721 5720 5718 5717 5716 5713 5712 5709 5707 5704 5702 5702 5701 5700 5699 5698 5697 5697 5696 5695 5695 5695
5726 5725 5725 5725 5725 5727 5725 5724 5723 5723 5724 5724 5725 5727 5725 5724 5723 5722 5718 5717 5718 5721 5720 5719 5718 5716 5714 5713 5710 5706 5703 5702 5700 5700 5699 5698 5697 5696 5696 5695 5694 5694 5694
5727 5725 5726 5724 5724 5724 5723 5723 5721 5723 5722 5720 5720 5723 5725 5725 5725 5724 5721 5720 5718 5720 5718 5718 5718 5716 5715 5713 5709 5705 5702 5701 5699 5698 5698 5697 5696 5695 5694 5694 5693 5693 5693
5729 5727 5725 5723 5722 5722 5722 5720 5722 5721 5720 5719 5720 5719 5720 5722 5723 5722 5720 5718 5715 5717 5717 5717 5719 5716 5714 5712 5709 5704 5702 5700 5698 5697 5696 5695 5694 5693 5693 5692 5691 5691 5691
5728 5726 5724 5723 5722 5721 5720 5719 5720 5718 5717 5717 5718 5716 5717 5719 5718 5719 5718 5717 5713 5710 5713 5715 5714 5715 5711 5710 5706 5704 5703 5700 5697 5695 5694 5693 5692 5692 5691 5690 5690 5689 5689
5725 5724 5723 5722 5721 5719 5718 5716 5717 5716 5714 5714 5714 5713 5712 5716 5716 5714 5714 5713 5712 5709 5708 5714 5711 5714 5708 5708 5703 5702 5701 5698 5696 5695 5693 5692 5691 5690 5689 5689 5688 5688 5687
5723 5722 5721 5720 5719 5718 5717 5715 5715 5714 5711 5711 5710 5709 5707 5708 5710 5710 5709 5709 5708 5706 5702 5707 5709 5707 5701 5700 5701 5699 5698 5697 5698 5695 5692 5691 5689 5689 5688 5687 5686 5686 5685
5721 5721 5719 5718 5717 5716 5715 5713 5711 5711 5709 5708 5707 5706 5705 5705 5702 5703 5703 5703 5703 5701 5697 5696 5700 5701 5697 5696 5695 5693 5696 5697 5696 5695 5691 5689 5688 5687 5686 5685 5685 5684 5683
5719 5718 5717 5715 5714 5713 5712 5711 5709 5708 5707 5706 5705 5703 5701 5700 5697 5698 5696 5698 5698 5697 5693 5692 5692 5695 5694 5693 5691 5689 5692 5690 5691 5693 5689 5687 5686 5685 5684 5683 5682 5682 5681
5716 5714 5713 5712 5711 5710 5709 5707 5706 5704 5703 5702 5701 5699 5697 5695 5693 5691 5691 5689 5689 5689 5688 5685 5686 5687 5687 5688 5684 5684 5686 5687 5686 5689 5688 5686 5684 5682 5681 5680 5679 5679 5678
5712 5710 5709 5708 5707 5705 5705 5703 5701 5700 5697 5696 5694 5693 5692 5689 5687 5685 5685 5684 5682 5680 5680 5680 5679 5680 5680 5678 5677 5679 5678 5678 5680 5681 5681 5681 5681 5681 5681 5678 5677 5676 5674
5707 5705 5703 5702 5700 5700 5697 5695 5693 5694 5692 5689 5687 5685 5684 5680 5677 5674 5672 5671 5669 5670 5670 5670 5671 5670 5669 5669 5668 5667 5667 5667 5667 5674 5671 5672 5673 5674 5675 5675 5676 5673 5670
5701 5698 5696 5695 5692 5689 5687 5685 5683 5684 5683 5681 5679 5676 5675 5675 5670 5668 5664 5660 5659 5657 5655 5656 5658 5658 5658 5658 5655 5655 5654 5654 5656 5659 5658 5659 5663 5664 5667 5669 5668 5666 5663
5694 5691 5688 5686 5683 5679 5676 5675 5673 5674 5672 5669 5667 5665 5662 5660 5658 5655 5655 5654 5653 5651 5648 5646 5645 5646 5646 5643 5642 5641 5641 5642 5645 5648 5648 5648 5653 5655 5659 5660 5660 5658 5656
5683 5680 5677 5674 5671 5666 5664 5664 5663 5664 5661 5657 5654 5652 5650 5647 5642 5640 5641 5642 5641 5639 5637 5634 5632 5631 5630 5628 5627 5628 5630 5631 5635 5641 5643 5639 5643 5644 5647 5650 5651 5650 5648
5671 5667 5663 5660 5656 5652 5649 5650 5650 5652 5649 5646 5642 5638 5633 5631 5627 5625 5627 5627 5626 5625 5624 5624 5621 5620 5619 5618 5616 5614 5617 5619 5622 5626 5630 5627 5628 5629 5632 5638 5639 5640 5638